Weather History for Lanai City, HI

Change the Weather History Date:

Tuesday, April 15, 2014

  Actual Average Record
Temperature  
Mean Temperature 71 °F -  
Max Temperature 78 °F 77 °F 80 °F (1954)
Min Temperature 64 °F 61 °F 55 °F (1951)
Cooling Degree Days 6    
Growing Degree Days 21 (Base 50)    
Moisture  
Dew Point 62 °F    
Average Humidity 75    
Maximum Humidity 90    
Minimum Humidity 57    
Precipitation  
Precipitation 0.01 in - - ()
Sea Level Pressure  
Sea Level Pressure 30.07 in    
Wind  
Wind Speed 21 mph (ENE)    
Max Wind Speed 31 mph    
Max Gust Speed 38 mph    
Visibility 10 miles    
Events      
Averages and records for this station are not official NWS values.
T = Trace of Precipitation, MM = Missing Value Source: NWS Daily Summary

Daily Weather History Graph

Daily Weather History Graph

Search for Another Location

Airport:

Trip Planner

Search our weather history database for the weather conditions in past years. The results will help you decide how hot, cold, wet, or windy it might be!

Date:

Astronomy

Apr. 15, 2014 Rise Set
Actual Time 6:08 AM HST 6:46 PM HST
Civil Twilight 5:46 AM HST 7:09 PM HST
Nautical Twilight 5:19 AM HST 7:35 PM HST
Astronomical Twilight 4:53 AM HST 8:02 PM HST
Moon 7:32 PM HST (4/15) 6:26 AM HST (4/15)
Length of Visible Light 13h 23m
Length of Day
12h 37m
Full, 100% of the Moon is Illuminated
Apr 15
Full
Apr 21
Last Quarter
Apr 28
New
May 6
First Quarter
May 14
Full

Hourly Weather History & Observations

Time (HST) Temp. Dew Point Humidity Pressure Visibility Wind Dir Wind Speed Gust Speed Precip Events Conditions
12:10 AM 66.2 °F 60.8 °F 83% 30.13 in 10.0 mi ENE 20.7 mph 32.2 mph N/A   Mostly Cloudy
12:56 AM 64.9 °F 61.0 °F 87% 30.06 in 10.0 mi East 18.4 mph 28.8 mph N/A   Overcast
1:40 AM 66.2 °F 60.8 °F 83% 30.10 in 10.0 mi East 12.7 mph 25.3 mph N/A   Overcast
1:56 AM 65.8 °F 61.0 °F 84% 30.05 in 10.0 mi ESE 17.3 mph 23.0 mph N/A   Overcast
2:04 AM 66.2 °F 60.8 °F 83% 30.10 in 10.0 mi East 16.1 mph - N/A   Overcast
2:56 AM 66.9 °F 59.9 °F 78% 30.04 in 10.0 mi East 20.7 mph 25.3 mph N/A   Overcast
3:11 AM 66.2 °F 59.0 °F 78% 30.08 in 10.0 mi ENE 18.4 mph 28.8 mph N/A   Mostly Cloudy
3:56 AM 65.8 °F 61.9 °F 87% 30.02 in 10.0 mi NE 20.7 mph 28.8 mph N/A   Overcast
4:14 AM 64.4 °F 60.8 °F 88% 30.08 in 10.0 mi ENE 20.7 mph 28.8 mph N/A   Scattered Clouds
4:56 AM 66.2 °F 62.6 °F 88% 30.08 in 10.0 mi ENE 25.3 mph 32.2 mph N/A   Mostly Cloudy
5:56 AM 65.8 °F 59.0 °F 79% 30.03 in 10.0 mi ENE 27.6 mph 35.7 mph N/A   Partly Cloudy
6:56 AM 66.9 °F 59.9 °F 78% 30.07 in 10.0 mi NE 20.7 mph 28.8 mph N/A   Scattered Clouds
7:56 AM 66.9 °F 59.9 °F 78% 30.08 in 10.0 mi ENE 19.6 mph 34.5 mph N/A   Partly Cloudy
8:13 AM 69.8 °F 60.8 °F 73% 30.13 in 10.0 mi ENE 26.5 mph 34.5 mph N/A   Mostly Cloudy
8:32 AM 71.6 °F 62.6 °F 73% 30.13 in 10.0 mi NE 17.3 mph 25.3 mph N/A   Scattered Clouds
8:56 AM 72.0 °F 63.0 °F 73% 30.08 in 10.0 mi ENE 25.3 mph 32.2 mph N/A   Mostly Cloudy
9:56 AM 72.9 °F 61.9 °F 68% 30.09 in 10.0 mi NE 19.6 mph 29.9 mph N/A   Mostly Cloudy
10:27 AM 75.2 °F 62.6 °F 65% 30.14 in 10.0 mi ENE 20.7 mph - N/A   Scattered Clouds
10:56 AM 77.0 °F 61.9 °F 59% 30.08 in 10.0 mi ENE 18.4 mph 27.6 mph N/A   Mostly Cloudy
11:11 AM 78.8 °F 62.6 °F 57% 30.13 in 10.0 mi NE 25.3 mph 31.1 mph N/A   Scattered Clouds
11:56 AM 77.9 °F 61.9 °F 58% 30.06 in 10.0 mi ENE 21.9 mph 28.8 mph N/A   Mostly Cloudy
12:56 PM 77.0 °F 63.9 °F 64% 30.05 in 10.0 mi NE 23.0 mph 31.1 mph N/A   Scattered Clouds
1:13 PM 75.2 °F 62.6 °F 65% 30.09 in 10.0 mi NE 24.2 mph 31.1 mph N/A   Mostly Cloudy
1:26 PM 78.8 °F 62.6 °F 57% 30.08 in 10.0 mi NE 31.1 mph 34.5 mph N/A   Mostly Cloudy
1:56 PM 78.8 °F 62.6 °F 57% 30.07 in 10.0 mi NE 25.3 mph 31.1 mph N/A   Scattered Clouds
2:56 PM 77.0 °F 63.0 °F 62% 30.00 in 10.0 mi NE 26.5 mph 31.1 mph N/A   Partly Cloudy
3:56 PM 75.9 °F 63.0 °F 64% 30.00 in 10.0 mi NE 21.9 mph 27.6 mph N/A   Partly Cloudy
4:56 PM 73.9 °F 61.9 °F 66% 30.01 in 10.0 mi NE 25.3 mph 31.1 mph N/A   Clear
5:56 PM 70.9 °F 63.0 °F 76% 30.01 in 10.0 mi NE 29.9 mph 38.0 mph N/A   Clear
6:56 PM 68.0 °F 61.9 °F 81% 30.04 in 10.0 mi NE 20.7 mph 33.4 mph N/A   Clear
7:56 PM 68.0 °F 63.9 °F 87% 30.05 in 10.0 mi NE 24.2 mph 35.7 mph N/A   Clear
8:56 PM 68.0 °F 63.0 °F 84% 30.07 in 10.0 mi NE 24.2 mph 32.2 mph N/A   Clear
9:56 PM 66.9 °F 63.9 °F 90% 30.09 in 10.0 mi ENE 26.5 mph 32.2 mph N/A   Clear
10:56 PM 68.0 °F 63.9 °F 87% 30.08 in 10.0 mi NE 26.5 mph 33.4 mph N/A   Clear
11:56 PM 66.9 °F 63.0 °F 87% 30.07 in 10.0 mi NE 26.5 mph 34.5 mph N/A   Clear